Fremont, NE

7:57 AM CST on November 24, 2017 (GMT -0600)
Fremont Municipal

Weather History for KFET - September, 2013

Change the Weather History Date:

Monday, September 23, 2013

  Actual Average Record
Temperature  
Mean Temperature 68 °F -  
Max Temperature 79 °F 72 °F 91 °F (2017)
Min Temperature 56 °F 45 °F 28 °F (1983)
Cooling Degree Days 2    
Growing Degree Days 18 (Base 50)    
Moisture  
Dew Point 51 °F    
Average Humidity 57    
Maximum Humidity 83    
Minimum Humidity 37    
Precipitation  
Precipitation 0.00 in - - ()
Sea Level Pressure  
Sea Level Pressure 29.78 in    
Wind  
Wind Speed 13 mph (SE)    
Max Wind Speed 22 mph    
Max Gust Speed 34 mph    
Visibility 10 miles    
Events Thunderstorm    
Averages and records for this station are not official NWS values.
T = Trace of Precipitation, MM = Missing Value Source: NWS Daily Summary

Daily Weather History Graph

Daily Weather History Graph

Search for Another Location

Airport or City:

Trip Planner

Search our weather history database for the weather conditions in past years. The results will help you decide how hot, cold, wet, or windy it might be!

Date:

Astronomy

Sep. 23, 2013 Rise Set
Actual Time 7:14 AM CDT 7:21 PM CDT
Civil Twilight 6:47 AM CDT 7:48 PM CDT
Nautical Twilight 6:14 AM CDT 8:20 PM CDT
Astronomical Twilight 5:41 AM CDT 8:53 PM CDT
Moon 9:50 PM CDT (9/23) 11:38 AM CDT (9/23)
Length of Visible Light 13h 01m
Length of Day
12h 06m
Waning Gibbous, 81% of the Moon is Illuminated
Sep 23
Waning Gibbous
Sep 26
Last Quarter
Oct 4
New
Oct 11
First Quarter
Oct 18
Full

Hourly Weather History & Observations

Time (CDT) Temp. Dew Point Humidity Pressure Visibility Wind Dir Wind Speed Gust Speed Precip Events Conditions
12:15 AM 63.7 °F 52.7 °F 67% 29.84 in 10.0 mi SE 9.2 mph - N/A   Clear
12:35 AM 63.0 °F 52.7 °F 69% 29.84 in 10.0 mi SE 11.5 mph 16.1 mph N/A   Clear
12:55 AM 62.4 °F 52.3 °F 70% 29.84 in 10.0 mi SE 11.5 mph 17.3 mph N/A   Clear
1:15 AM 62.1 °F 52.0 °F 70% 29.84 in 10.0 mi SE 10.4 mph - N/A   Clear
1:35 AM 62.1 °F 51.4 °F 68% 29.83 in 10.0 mi SE 10.4 mph 16.1 mph N/A   Clear
1:55 AM 62.2 °F 51.1 °F 67% 29.83 in 10.0 mi SSE 13.8 mph 17.3 mph N/A   Clear
2:15 AM 61.7 °F 50.9 °F 68% 29.83 in 10.0 mi SE 11.5 mph 18.4 mph N/A   Clear
2:35 AM 61.7 °F 50.9 °F 68% 29.82 in 10.0 mi SSE 10.4 mph 19.6 mph N/A   Clear
2:55 AM 61.2 °F 50.7 °F 69% 29.82 in 10.0 mi SE 9.2 mph - N/A   Clear
3:15 AM 60.4 °F 50.9 °F 71% 29.82 in 10.0 mi SE 9.2 mph - N/A   Clear
3:35 AM 59.9 °F 50.7 °F 72% 29.81 in 10.0 mi SE 11.5 mph - N/A   Clear
3:55 AM 59.4 °F 50.9 °F 74% 29.81 in 10.0 mi SE 10.4 mph - N/A   Clear
4:15 AM 59.0 °F 50.7 °F 74% 29.80 in 10.0 mi SE 13.8 mph 17.3 mph N/A   Clear
4:35 AM 58.6 °F 50.9 °F 75% 29.80 in 10.0 mi SE 10.4 mph 16.1 mph N/A   Clear
4:55 AM 58.1 °F 50.9 °F 77% 29.80 in 10.0 mi SE 9.2 mph - N/A   Clear
5:15 AM 58.1 °F 50.9 °F 77% 29.80 in 10.0 mi SE 12.7 mph 17.3 mph N/A   Clear
5:35 AM 57.7 °F 50.9 °F 78% 29.80 in 10.0 mi SE 9.2 mph - N/A   Clear
5:55 AM 57.6 °F 50.9 °F 78% 29.81 in 10.0 mi SE 9.2 mph - N/A   Clear
6:15 AM 57.2 °F 50.9 °F 79% 29.81 in 10.0 mi SE 9.2 mph - N/A   Clear
6:35 AM 56.7 °F 50.9 °F 81% 29.81 in 10.0 mi SE 9.2 mph - N/A   Clear
6:55 AM 56.5 °F 51.1 °F 82% 29.81 in 10.0 mi SE 11.5 mph 16.1 mph N/A   Clear
7:15 AM 56.8 °F 51.1 °F 81% 29.82 in 10.0 mi SE 12.7 mph 18.4 mph N/A   Clear
7:35 AM 56.5 °F 51.3 °F 83% 29.82 in 10.0 mi SE 10.4 mph - N/A   Clear
7:55 AM 56.7 °F 51.3 °F 82% 29.83 in 10.0 mi SE 11.5 mph 16.1 mph N/A   Clear
8:15 AM 57.6 °F 51.8 °F 81% 29.81 in 10.0 mi SE 10.4 mph - N/A   Clear
8:35 AM 59.0 °F 51.8 °F 77% 29.81 in 10.0 mi SE 11.5 mph 18.4 mph N/A   Clear
8:55 AM 60.1 °F 51.8 °F 74% 29.81 in 10.0 mi SE 12.7 mph 16.1 mph N/A   Clear
9:15 AM 60.8 °F 51.8 °F 72% 29.81 in 10.0 mi SE 12.7 mph 18.4 mph N/A   Clear
9:35 AM 63.1 °F 52.7 °F 69% 29.81 in 10.0 mi SE 11.5 mph 16.1 mph N/A   Clear
9:55 AM 64.6 °F 52.5 °F 65% 29.81 in 10.0 mi SE 10.4 mph - N/A   Clear
10:15 AM 66.6 °F 52.7 °F 61% 29.81 in 10.0 mi SE 13.8 mph 20.7 mph N/A   Clear
10:35 AM 67.3 °F 52.7 °F 59% 29.81 in 10.0 mi SE 12.7 mph 16.1 mph N/A   Clear
10:55 AM 69.6 °F 52.9 °F 55% 29.81 in 10.0 mi SE 13.8 mph 18.4 mph N/A   Clear
11:15 AM 71.2 °F 52.3 °F 51% 29.81 in 10.0 mi SSE 15.0 mph 18.4 mph N/A   Clear
11:35 AM 72.5 °F 52.5 °F 49% 29.80 in 10.0 mi SE 15.0 mph 21.9 mph N/A   Clear
11:55 AM 74.8 °F 52.5 °F 46% 29.79 in 10.0 mi SE 17.3 mph 24.2 mph N/A   Clear
12:15 PM 75.6 °F 52.2 °F 44% 29.78 in 10.0 mi SE 17.3 mph 25.3 mph N/A   Clear
12:35 PM 76.3 °F 52.9 °F 44% 29.77 in 10.0 mi SE 19.6 mph 29.9 mph N/A   Clear
12:55 PM 76.5 °F 52.3 °F 43% 29.77 in 10.0 mi SSE 19.6 mph 26.5 mph N/A   Clear
1:15 PM 78.8 °F 52.5 °F 40% 29.77 in 10.0 mi SE 17.3 mph 23.0 mph N/A   Clear
1:35 PM 77.9 °F 51.3 °F 39% 29.76 in 10.0 mi SE 20.7 mph 32.2 mph N/A   Clear
1:55 PM 78.1 °F 51.1 °F 39% 29.74 in 10.0 mi SE 17.3 mph 34.5 mph N/A   Clear
2:15 PM 79.0 °F 51.6 °F 38% 29.73 in 10.0 mi SE 19.6 mph 33.4 mph N/A   Clear
2:35 PM 78.3 °F 51.6 °F 39% 29.73 in 10.0 mi SSE 21.9 mph 32.2 mph N/A   Clear
2:55 PM 79.5 °F 51.6 °F 38% 29.73 in 10.0 mi SE 19.6 mph 27.6 mph N/A   Clear
3:15 PM 78.8 °F 51.3 °F 38% 29.74 in 10.0 mi SE 19.6 mph 32.2 mph N/A   Clear
3:35 PM 79.3 °F 52.0 °F 38% 29.75 in 10.0 mi SSE 18.4 mph 24.2 mph N/A   Clear
3:55 PM 79.0 °F 50.5 °F 37% 29.73 in 10.0 mi SE 20.7 mph 29.9 mph N/A   Clear
4:15 PM 78.8 °F 51.4 °F 38% 29.73 in 10.0 mi SE 20.7 mph 26.5 mph N/A   Clear
4:35 PM 79.0 °F 51.6 °F 38% 29.73 in 10.0 mi SSE 19.6 mph 28.8 mph N/A   Clear
4:55 PM 78.6 °F 51.6 °F 39% 29.72 in 10.0 mi SE 17.3 mph 24.2 mph N/A   Clear
5:15 PM 76.5 °F 51.8 °F 42% 29.73 in 10.0 mi SE 16.1 mph 20.7 mph N/A   Clear
5:35 PM 75.9 °F 51.1 °F 42% 29.73 in 10.0 mi SE 13.8 mph 21.9 mph N/A   Clear
5:55 PM 75.2 °F 50.2 °F 41% 29.74 in 10.0 mi SE 15.0 mph 23.0 mph N/A   Clear
6:15 PM 74.1 °F 50.5 °F 43% 29.74 in 10.0 mi SE 15.0 mph 18.4 mph N/A   Clear
6:35 PM 73.9 °F 51.3 °F 45% 29.73 in 10.0 mi ESE 15.0 mph 18.4 mph N/A   Clear
6:55 PM 73.9 °F 50.4 °F 43% 29.74 in 10.0 mi SE 12.7 mph 19.6 mph N/A   Clear
7:15 PM 72.9 °F 50.9 °F 46% 29.74 in 10.0 mi ESE 11.5 mph - N/A   Mostly Cloudy
7:35 PM 72.5 °F 51.3 °F 47% 29.74 in 10.0 mi ESE 11.5 mph 19.6 mph N/A   Mostly Cloudy
7:55 PM 72.0 °F 51.3 °F 48% 29.75 in 10.0 mi ESE 10.4 mph 16.1 mph N/A   Mostly Cloudy
8:15 PM 71.6 °F 50.5 °F 47% 29.75 in 10.0 mi ESE 15.0 mph 19.6 mph N/A   Overcast
8:35 PM 71.4 °F 50.0 °F 47% 29.75 in 10.0 mi ESE 13.8 mph 23.0 mph N/A   Overcast
8:55 PM 70.9 °F 49.8 °F 47% 29.75 in 10.0 mi ESE 15.0 mph - N/A   Scattered Clouds
9:15 PM 70.2 °F 50.0 °F 49% 29.75 in 10.0 mi ESE 16.1 mph 21.9 mph N/A   Scattered Clouds
9:35 PM 69.8 °F 50.5 °F 50% 29.75 in 10.0 mi ESE 19.6 mph - N/A   Clear
9:55 PM 69.8 °F 50.4 °F 50% 29.75 in 10.0 mi ESE 16.1 mph 21.9 mph N/A   Mostly Cloudy
10:15 PM 69.8 °F 50.2 °F 50% 29.74 in 10.0 mi ESE 16.1 mph 26.5 mph N/A   Scattered Clouds
10:35 PM 69.4 °F 50.4 °F 51% 29.74 in 10.0 mi ESE 16.1 mph 25.3 mph N/A   Scattered Clouds
10:55 PM 69.1 °F 50.9 °F 52% 29.74 in 10.0 mi ESE 12.7 mph 24.2 mph N/A   Scattered Clouds
11:15 PM 68.9 °F 51.4 °F 54% 29.74 in 10.0 mi ESE 15.0 mph 25.3 mph N/A   Scattered Clouds
11:35 PM 68.5 °F 51.8 °F 55% 29.73 in 10.0 mi ESE 15.0 mph 23.0 mph N/A Thunderstorm Mostly Cloudy
11:55 PM 68.4 °F 52.2 °F 56% 29.73 in 10.0 mi ESE 15.0 mph 21.9 mph N/A   Overcast